Location: Joplin, MO
(37.0842°N, 94.5133°W)
Time: 09:07:07
(UTC+02:00)

Transit 2A - Pass Details

Date: 31 March 2023
Orbit: 591 x 964 km, 66.7° (Epoch: 03 June)

Event Time Altitude Azimuth Distance (km) Brightness Sun altitude
Exits shadow 13:26:33 - 280° (W) 2,571 8.1 -8.5°
Reaches altitude 10° 13:27:15 10° 286° (WNW) 2,439 8.1 -8.4°
Maximum altitude 13:30:17 14° 319° (NW) 2,201 8.1 -7.8°
Drops below altitude 10° 13:33:26 10° 351° (N) 2,570 8.8 -7.2°
Sets 13:37:22 0° 15° (NNE) 3,579 9.8 -6.4°
